Location: *
(47.6569°N, 7.4256°E)
Time: 05:34:33
(UTC+00:00)

YAOGAN 1 - Pass Details

Date: 14 December 2019
Orbit: 619 x 621 km, 98.0° (Epoch: 25 January)

Event Time Altitude Azimuth Distance (km) Brightness Sun altitude
Rises 17:06:18 0° 139° (SE) 2,888 5.8 -14.0°
Reaches altitude 10° 17:08:39 10° 129° (SE) 1,987 4.9 -14.3°
Maximum altitude 17:12:28 32° 67° (ENE) 1,082 3.2 -14.9°
Drops below altitude 10° 17:16:19 10° 5° (N) 2,001 4.9 -15.6°
Sets 17:18:41 0° 355° (N) 2,912 5.9 -15.9°
